• Join FlightAware (Why Join?)
  • Login
  • US Flag 
12:06AM EDT


 

Airport Tracker/Info


-or-


 

Live Flight TrackerFlight Track Log ✈ CHQ3058 ✈ 26-Jun-2013 ✈ KCLT - KFAY

Flight Track Log - Related Links

Times and Time Zones

All times are in EDT time to prevent confusion due to time zone crossing. See the CHQ3058 flight status page for this flight to view local times or setup timezone preferences in your user account.

Time Position Orientation Groundspeed Altitude Reporting Facility
EDT Latitude Longitude Course Direction KTS MPH feet Rate Location/Type
07:42PM 35.1908 -80.9356 106° East 173 199 1,600  Level Atlanta Center
07:43PM 35.1594 -80.9342 178° South 174 200 2,700 1,800 Climbing Atlanta Center
07:44PM 35.1058 -80.8806 141° Southeast 268 308 4,600 2,040 Climbing Atlanta Center
07:45PM 35.0927 -80.7063 83° East  Level FlightAware Approximate
07:45PM 35.0975 -80.7919 97° East 286 329 6,900  Level Atlanta Center
07:46PM 35.0989 -80.6288 106° East  Level FlightAware Approximate
07:46PM 35.0842 -80.6908 99° East 291 335 7,900  Level Atlanta Center
07:47PM 35.0809 -80.5537 106° East  Level FlightAware Approximate
07:47PM 35.0544 -80.5983 111° Southeast 293 337 8,000  Level Atlanta Center
07:49PM 34.9703 -80.3950 117° Southeast 280 322 10,600 840 Climbing Washington Center
07:50PM 34.9364 -80.3069 115° Southeast 299 344 11,000 180 Climbing Washington Center
07:51PM 34.8950 -80.1906 113° Southeast 327 376 11,000  Level Washington Center
07:52PM 34.8631 -80.1000 113° Southeast 327 376 11,000  Level Washington Center
07:53PM 34.8256 -79.9867 112° Southeast 321 369 11,000  Level Washington Center
07:54PM 34.7931 -79.8989 114° Southeast 316 364 11,000  Level Washington Center
07:55PM 34.7511 -79.7881 115° Southeast 321 369 11,000  Level Washington Center
07:56PM 34.7089 -79.6822 116° Southeast 334 384 11,000 -60 Level Washington Center
07:57PM 34.6706 -79.5819 115° Southeast 334 384 10,900 -600 Descending Washington Center
07:58PM 34.6489 -79.4825 105° East 310 357 9,800 -1,260 Descending Washington Center
07:59PM 34.6664 -79.3922 77° East 277 319 8,400 -1,380 Descending Washington Center
08:00PM 34.6858 -79.3047 75° East 267 307 6,800 -1,380 Descending Washington Center